Powrót do katalogu

TUBSAT B

AktywnyNaukaPO
NORAD 22971·PAYLOAD·🇩🇪 Germany

Wystrzelony Jan 25, 1994 z Plesetsk Cosmodrome

Loading…

Następne Przeloty (najbliższe 24 godziny)

TLE

ŚwieżeSource: Space-Track

Epoka: Sep 14, 2026, 14:22 UTC

1 22971U 94003C   26257.59882075 -.00000031  00000-0 -11255-3 0  9996
2 22971  82.5656  22.7196 0015716 341.3239  34.0543 13.17157837568840

Śledź TUBSAT B w czasie rzeczywistym z AllMySat

Download on the App Store